Weather History for KSFF - July, 2013

Change the Weather History Date:

Wednesday, July 24, 2013

  Actual Average Record
Temperature  
Mean Temperature 78 °F 71 °F  
Max Temperature 98 °F 88 °F 102 °F (2006)
Min Temperature 57 °F 55 °F 48 °F (2011)
Degree Days  
Heating Degree Days 0 0  
Month to date heating degree days 0 18  
Since 1 June heating degree days 105 136  
Since 1 July heating degree days 0 18  
Cooling Degree Days 13 7  
Month to date cooling degree days 219 123  
Year to date cooling degree days 302 170  
Since 1 June cooling degree days 276 163  
Growing Degree Days 28 (Base 50)    
Moisture  
Dew Point 43 °F    
Average Humidity 39    
Maximum Humidity 67    
Minimum Humidity 11    
Precipitation  
Precipitation 0.00 in 0.02 in 0.00 in (2015)
Month to date precipitation T 0.72  
Year to date precipitation 7.96 9.94  
Sea Level Pressure  
Sea Level Pressure 29.91 in    
Wind  
Wind Speed 3 mph (NNW)    
Max Wind Speed 12 mph    
Max Gust Speed 17 mph    
Visibility 10 miles    
Events      
T = Trace of Precipitation, MM = Missing Value Source: NWS Daily Summary

Daily Weather History Graph

Daily Weather History Graph

Search for Another Location

Airport or City:

Trip Planner

Search our weather history database for the weather conditions in past years. The results will help you decide how hot, cold, wet, or windy it might be!

Date:

Astronomy

Jul. 24, 2013 Rise Set
Actual Time 5:17 AM PDT 8:33 PM PDT
Civil Twilight 4:39 AM PDT 9:11 PM PDT
Nautical Twilight 3:50 AM PDT 9:59 PM PDT
Astronomical Twilight 2:47 AM PDT 11:01 PM PDT
Moon 9:24 PM PDT (7/24) 7:57 AM PDT (7/24)
Length of Visible Light 16h 31m
Length of Day
15h 16m
Waning Gibbous, 94% of the Moon is Illuminated
Jul 24
Waning Gibbous
Jul 29
Last Quarter
Aug 6
New
Aug 14
First Quarter
Aug 20
Full

Hourly Weather History & Observations

Time (PDT) Temp. Dew Point Humidity Pressure Visibility Wind Dir Wind Speed Gust Speed Precip Events Conditions
12:53 AM 66.0 °F 44.1 °F 45% 29.90 in 10.0 mi Calm Calm - N/A   Clear
1:53 AM 63.0 °F 46.9 °F 56% 29.90 in 10.0 mi ENE 3.5 mph - N/A   Clear
2:53 AM 61.0 °F 48.0 °F 62% 29.91 in 10.0 mi NNE 4.6 mph - N/A   Clear
3:53 AM 62.1 °F 48.0 °F 60% 29.91 in 10.0 mi NE 4.6 mph - N/A   Clear
4:53 AM 60.1 °F 48.0 °F 64% 29.93 in 10.0 mi Calm Calm - N/A   Clear
5:53 AM 59.0 °F 48.9 °F 69% 29.93 in 10.0 mi NE 3.5 mph - N/A   Clear
6:53 AM 64.9 °F 48.9 °F 56% 29.94 in 10.0 mi Calm Calm - N/A   Clear
7:53 AM 68.0 °F 50.0 °F 52% 29.95 in 10.0 mi Variable 3.5 mph - N/A   Clear
8:53 AM 75.9 °F 46.0 °F 35% 29.96 in 10.0 mi Calm Calm - N/A   Clear
9:53 AM 80.1 °F 44.1 °F 28% 29.95 in 10.0 mi Calm Calm - N/A   Clear
10:53 AM 84.9 °F 46.0 °F 26% 29.94 in 10.0 mi Calm Calm - N/A   Clear
11:53 AM 88.0 °F 43.0 °F 21% 29.94 in 10.0 mi West 5.8 mph - N/A   Clear
12:53 PM 91.9 °F 39.9 °F 16% 29.92 in 10.0 mi SW 5.8 mph - N/A   Clear
1:53 PM 93.9 °F 39.9 °F 15% 29.91 in 9.0 mi Calm Calm - N/A   Clear
2:53 PM 93.9 °F 39.0 °F 15% 29.90 in 10.0 mi West 6.9 mph - N/A   Clear
3:53 PM 95.0 °F 35.1 °F 12% 29.88 in 10.0 mi Variable 5.8 mph 17.3 mph N/A   Clear
4:53 PM 96.1 °F 33.1 °F 11% 29.88 in 10.0 mi West 8.1 mph - N/A   Clear
5:53 PM 95.0 °F 33.1 °F 11% 29.87 in 10.0 mi WSW 3.5 mph - N/A   Clear
6:53 PM 93.9 °F 35.1 °F 13% 29.86 in 10.0 mi West 4.6 mph - N/A   Clear
7:53 PM 88.0 °F 39.9 °F 18% 29.87 in 10.0 mi Calm Calm - N/A   Clear
8:53 PM 78.1 °F 37.9 °F 24% 29.88 in 10.0 mi NE 3.5 mph - N/A   Clear
9:53 PM 73.9 °F 41.0 °F 30% 29.89 in 10.0 mi NE 4.6 mph - N/A   Clear
10:53 PM 75.9 °F 42.1 °F 30% 29.89 in 10.0 mi Calm Calm - N/A   Clear
11:53 PM 73.0 °F 45.0 °F 37% 29.90 in 10.0 mi NE 4.6 mph - N/A   Clear